Wind_Speed
34 39 43 43 43 43 47 49 52 53 55 53 51 49 51 49 49 43 44 41 45 39 39 34 30 33 36 34 35 40 43 35 26 29 34 30 35 33 25 27 33 37 40 39 32
33 36 41 46 46 46 46 49 54 56 55 55 56 54 56 55 57 56 45 48 43 45 40 41 41 42 41 38 41 46 44 33 28 35 33 22 26 23 27 30 34 39 41 36 25
29 33 34 39 47 49 47 48 51 54 54 54 58 59 61 62 63 56 56 48 48 47 49 51 51 47 47 45 43 43 45 35 36 39 31 33 29 21 24 26 31 34 31 32 26
36 38 37 30 35 44 50 48 49 50 53 54 57 58 62 64 63 59 57 51 51 49 51 48 47 49 48 47 37 47 46 42 42 44 41 42 41 25 21 27 28 28 26 25 21
35 36 37 40 35 30 44 50 51 52 55 57 58 60 63 60 55 57 54 54 53 53 53 48 51 47 50 43 44 52 49 49 48 48 49 45 42 23 23 23 28 22 22 24 19
39 40 40 40 40 43 39 48 49 51 54 55 57 60 60 58 52 57 56 59 57 54 54 54 50 50 59 54 56 54 56 60 55 55 52 50 34 27 20 20 21 21 24 20 16
40 41 42 42 43 42 46 44 48 51 51 51 51 53 55 51 50 57 59 59 61 62 60 55 58 60 62 65 65 63 61 56 52 49 42 32 27 21 15 18 15 22 27 20 21
48 48 47 47 46 45 46 49 50 54 55 47 42 42 44 44 51 56 55 57 59 57 58 57 62 65 69 68 64 59 56 51 40 30 11 27 23 12 14 15 16 21 24 27 27
55 56 55 54 53 51 49 50 52 55 55 44 45 44 36 30 35 47 55 59 56 59 57 59 52 48 44 45 39 35 32 25 8 12 12 25 19 13 12 11 17 17 25 34 29
64 64 63 62 61 58 56 55 53 56 56 51 53 47 38 35 31 38 56 62 60 56 46 38 39 34 27 23 10 17 18 13 10 9 18 20 17 15 12 17 11 14 27 28 22
73 73 73 71 70 67 64 62 59 59 57 56 53 48 49 46 39 37 37 41 43 47 41 40 48 26 15 21 26 20 22 21 16 22 24 20 14 18 16 12 15 22 23 21 20
79 80 79 77 76 75 71 70 67 64 60 56 56 51 48 49 47 44 44 45 46 42 42 44 33 28 25 31 28 25 26 19 25 26 24 20 14 12 12 21 18 26 21 21 30
77 76 80 79 77 78 77 75 73 69 67 60 57 56 51 51 50 47 48 48 47 47 47 43 35 31 33 33 34 29 28 17 21 25 27 22 20 18 14 18 20 25 24 22 27
55 56 59 65 73 73 76 75 75 73 72 65 61 59 55 53 54 45 48 51 52 51 48 48 45 40 38 38 34 36 19 20 21 26 23 24 25 20 20 22 27 29 28 24 23
38 38 39 39 43 49 62 64 72 73 71 64 67 67 63 57 53 49 45 45 47 51 52 49 44 42 38 36 32 25 26 24 22 23 26 30 31 22 23 20 25 25 14 14 21
33 32 31 30 29 32 36 44 53 63 69 55 65 65 68 61 54 55 50 49 42 41 46 51 48 43 40 40 38 24 32 28 27 29 37 25 34 10 16 19 15 6 9 12 19
32 33 34 34 35 33 33 34 40 60 59 38 57 63 64 65 53 50 54 52 46 44 45 46 44 42 41 42 44 38 36 36 36 40 32 23 22 8 9 13 12 12 13 14 18
29 28 28 25 27 29 31 34 39 42 42 32 58 46 54 54 52 43 45 53 49 40 38 34 36 35 32 38 43 43 41 40 39 34 26 23 20 9 7 14 17 15 16 18 22
26 25 23 22 23 23 24 29 30 32 41 52 56 37 46 57 57 48 45 51 48 43 38 36 37 30 29 30 38 41 39 33 33 26 29 18 18 18 11 11 9 13 15 17 20
27 27 24 21 22 23 25 29 31 33 32 42 54 48 45 54 55 57 60 46 50 51 47 39 36 29 24 30 34 33 33 35 38 34 29 24 22 19 14 14 11 10 15 16 21
23 20 18 18 15 13 13 16 22 28 24 30 53 58 48 60 61 57 66 62 54 45 45 46 44 35 34 32 32 36 38 41 31 26 27 21 20 12 16 16 14 12 16 20 22
24 18 2 5 7 7 7 6 16 17 24 24 40 61 56 61 62 63 64 69 66 59 53 46 48 40 31 32 27 29 31 33 33 31 29 23 17 15 23 19 15 13 14 16 22
22 12 3 3 3 9 8 6 7 12 15 18 32 52 59 58 61 65 69 67 67 67 62 49 50 47 41 41 38 38 36 34 33 33 30 24 15 19 18 19 15 15 10 15 22
20 8 7 3 9 16 13 14 16 18 14 19 27 47 52 63 63 72 67 67 64 65 69 62 58 55 50 43 39 40 39 37 38 38 30 22 20 22 19 19 19 12 11 13 19
19 10 10 10 10 14 14 13 16 22 27 25 21 38 54 63 62 75 67 66 64 63 67 67 62 57 50 45 42 38 36 38 39 34 32 22 21 22 20 17 13 13 12 10 14
23 17 12 14 7 6 5 6 18 17 12 19 21 27 48 66 63 70 71 62 64 61 63 67 64 58 54 49 45 44 42 38 35 34 29 25 25 20 23 20 20 17 14 4 9
28 25 6 7 6 6 7 8 9 8 8 9 15 11 32 61 71 62 69 69 69 63 63 67 67 62 58 55 49 55 49 44 36 32 29 29 23 25 27 22 20 20 8 1 4
Wind_Direction
255 257 262 262 262 261 253 245 243 247 253 253 252 250 255 246 242 244 260 239 245 247 249 246 246 253 259 262 259 266 276 280 280 283 291 285 285 265 280 290 293 291 290 299 310
263 264 264 262 261 260 258 250 247 243 245 252 251 249 251 250 250 254 253 253 248 250 250 245 250 258 258 260 264 274 274 275 276 281 287 288 277 274 281 283 276 281 292 302 308
263 271 277 264 256 254 257 256 251 247 244 246 246 246 247 252 255 258 256 258 246 248 248 253 258 256 258 253 259 264 266 271 270 281 286 279 296 275 266 265 276 284 294 302 308
266 268 271 277 267 251 250 251 253 252 249 245 241 243 245 247 249 247 254 251 242 250 253 255 252 261 255 257 249 256 258 265 270 278 279 287 296 266 271 276 283 286 301 307 310
268 269 269 269 270 265 249 244 248 253 253 251 247 244 244 247 247 249 251 243 242 246 248 253 253 258 258 257 253 253 262 265 270 274 277 283 292 269 273 283 284 296 309 319 306
276 273 270 269 263 265 264 252 249 251 251 252 249 247 248 254 246 244 249 242 245 244 245 251 254 255 254 256 255 257 261 267 268 273 279 284 285 260 275 277 285 305 304 313 298
277 273 270 267 263 258 256 255 249 247 247 246 249 250 249 255 244 240 242 243 240 247 248 252 254 258 261 261 267 272 269 270 272 275 281 283 254 252 274 264 295 290 308 312 301
279 275 271 269 266 261 252 251 244 245 244 238 244 244 247 254 241 234 236 239 242 246 249 252 256 259 259 262 268 269 272 273 272 271 264 269 249 257 256 266 290 294 306 313 303
275 273 271 268 264 261 260 254 247 246 245 243 243 242 244 248 244 236 235 237 237 240 243 248 254 256 253 257 264 262 271 272 210 234 253 248 255 238 253 292 301 299 299 300 301
273 270 267 265 263 260 256 252 251 250 247 244 246 244 248 242 248 240 236 237 236 240 231 228 243 249 245 245 240 280 270 245 190 181 214 218 248 259 275 265 315 298 294 298 326
267 266 264 261 259 256 254 252 247 246 251 243 245 241 242 241 236 238 236 236 227 220 221 225 238 244 243 271 270 252 238 233 180 185 204 211 238 269 275 282 302 302 310 319 296
266 261 260 258 257 255 251 248 246 245 245 249 247 242 240 242 237 231 231 232 232 231 232 232 239 247 252 253 251 244 240 229 191 199 220 224 238 247 252 278 304 301 303 303 298
273 267 263 259 257 253 250 247 244 243 245 241 245 246 241 240 239 234 227 229 231 232 235 235 241 246 242 240 242 238 236 231 199 212 227 240 244 249 260 272 281 294 288 283 287
278 273 268 263 260 258 253 249 245 242 241 242 239 243 242 241 239 238 237 230 228 231 235 238 236 231 231 231 230 232 234 227 214 218 236 245 248 246 255 267 272 270 279 309 314
285 281 277 272 263 255 255 252 248 242 241 240 238 236 239 237 240 239 242 239 232 235 237 241 237 237 235 232 235 233 231 226 220 229 235 222 248 243 259 262 259 262 314 319 345
289 285 281 275 265 260 254 249 244 241 238 239 239 234 235 231 233 234 232 237 228 230 232 237 238 237 235 230 229 219 226 225 223 225 234 223 236 226 220 247 254 273 315 357 347
295 288 281 274 269 263 256 251 242 237 230 220 232 232 232 230 220 225 227 229 226 225 224 225 224 222 221 218 214 213 216 220 222 228 234 214 227 178 203 237 274 302 315 345 320
305 297 288 283 273 266 259 251 247 239 224 219 227 226 218 219 210 199 206 220 222 221 227 223 215 217 220 218 213 218 216 225 225 229 237 223 226 160 231 241 270 288 328 326 297
311 303 291 278 274 270 258 248 244 234 223 209 210 193 206 209 207 198 204 212 217 219 220 216 212 215 219 223 214 214 227 230 232 228 234 224 229 201 220 242 259 312 330 308 323
308 292 289 283 280 276 263 248 243 235 240 226 200 196 191 198 197 201 210 202 204 211 220 221 220 211 211 206 211 220 226 211 218 213 224 217 216 197 232 253 277 296 325 322 317
325 310 294 278 285 298 268 237 237 239 244 237 208 200 186 194 192 189 212 209 200 201 215 216 220 217 204 206 210 207 208 207 214 224 224 223 215 213 242 259 279 304 325 314 320
333 329 259 339 325 4 360 256 220 218 233 245 212 205 199 187 190 190 207 202 203 199 200 204 218 218 213 213 213 220 224 222 221 220 214 222 185 213 232 247 263 284 306 316 326
338 331 202 256 320 323 325 312 283 244 245 247 222 213 206 188 185 186 196 196 199 203 202 196 205 213 204 207 199 209 211 218 225 218 218 223 171 214 218 228 238 266 299 318 317
345 319 186 111 243 269 281 286 285 274 262 251 228 221 219 199 185 182 190 190 191 197 204 200 200 204 207 210 213 214 209 207 219 222 217 206 178 219 229 228 241 258 290 308 307
345 325 228 227 234 256 284 299 303 289 277 264 239 222 227 215 195 185 189 193 191 192 200 205 207 206 199 208 212 214 220 211 215 222 223 197 201 216 236 246 253 266 281 309 301
342 331 291 262 272 280 146 52 332 319 307 265 229 225 222 223 206 188 191 194 191 192 197 201 206 206 203 201 208 212 211 213 213 217 224 209 208 213 239 242 245 257 269 298 270
351 347 300 237 254 237 239 295 351 308 300 248 224 223 225 223 218 198 193 190 193 190 194 199 201 202 205 200 200 212 211 210 210 216 223 220 202 213 224 241 246 248 262 128 241
Height
5821 5821 5821 5821 5820 5820 5821 5823 5826 5830 5832 5835 5836 5840 5843 5848 5851 5853 5861 5863 5859 5865 5868 5868 5868 5868 5868 5871 5868 5863 5864 5870 5870 5868 5868 5867 5860 5857 5856 5855 5851 5849 5847 5848 5848
5812 5812 5811 5810 5809 5810 5811 5812 5815 5818 5821 5823 5827 5830 5832 5836 5840 5845 5855 5850 5852 5856 5862 5861 5859 5858 5862 5866 5861 5857 5856 5864 5865 5863 5861 5861 5857 5854 5853 5852 5848 5845 5843 5842 5842
5803 5802 5801 5799 5800 5800 5800 5801 5804 5806 5809 5812 5815 5819 5821 5825 5828 5838 5839 5845 5844 5848 5851 5851 5852 5851 5853 5853 5856 5852 5846 5857 5856 5855 5855 5852 5855 5851 5848 5846 5843 5841 5840 5837 5836
5795 5794 5792 5791 5790 5790 5792 5792 5793 5794 5797 5799 5802 5806 5809 5813 5814 5825 5830 5834 5837 5838 5840 5842 5843 5841 5843 5843 5850 5837 5842 5844 5846 5847 5846 5846 5845 5847 5841 5840 5838 5836 5835 5833 5831
5784 5783 5781 5780 5780 5779 5781 5783 5784 5784 5785 5787 5789 5792 5794 5796 5805 5818 5821 5824 5826 5828 5832 5833 5831 5833 5832 5838 5837 5831 5836 5836 5837 5837 5837 5838 5837 5838 5836 5837 5832 5832 5830 5828 5826
5773 5771 5770 5768 5768 5767 5766 5767 5769 5771 5772 5774 5776 5779 5780 5780 5805 5805 5808 5810 5815 5818 5821 5823 5826 5827 5816 5823 5824 5829 5826 5824 5827 5828 5828 5828 5829 5829 5832 5832 5828 5826 5825 5824 5821
5764 5762 5760 5759 5758 5758 5757 5756 5758 5760 5762 5762 5764 5765 5767 5775 5789 5791 5791 5798 5804 5809 5812 5816 5814 5812 5811 5811 5814 5813 5810 5812 5816 5818 5819 5822 5819 5824 5828 5826 5824 5821 5820 5818 5816
5749 5747 5747 5746 5746 5746 5747 5748 5748 5751 5752 5752 5756 5757 5759 5765 5769 5773 5783 5788 5793 5798 5802 5806 5803 5798 5795 5801 5801 5802 5800 5799 5807 5810 5815 5814 5813 5821 5821 5819 5820 5818 5816 5812 5810
5734 5730 5728 5727 5728 5730 5731 5733 5735 5737 5741 5742 5746 5747 5751 5757 5760 5769 5770 5772 5783 5783 5790 5795 5787 5787 5788 5789 5793 5792 5791 5795 5801 5804 5808 5808 5811 5814 5814 5812 5813 5812 5811 5810 5807
5715 5711 5708 5708 5708 5709 5712 5714 5717 5721 5725 5729 5733 5738 5742 5750 5750 5752 5755 5759 5767 5774 5777 5779 5778 5778 5782 5783 5787 5792 5792 5793 5796 5800 5800 5803 5803 5805 5806 5807 5808 5808 5807 5806 5800
5690 5687 5685 5684 5685 5687 5691 5694 5700 5703 5708 5717 5722 5725 5728 5733 5741 5746 5747 5750 5755 5759 5762 5770 5766 5768 5779 5783 5784 5786 5787 5788 5792 5793 5793 5796 5796 5799 5800 5800 5802 5803 5801 5799 5798
5660 5659 5658 5658 5660 5663 5666 5670 5676 5684 5692 5699 5706 5712 5719 5721 5726 5733 5738 5742 5745 5751 5757 5760 5758 5771 5778 5778 5778 5780 5781 5785 5788 5789 5788 5791 5792 5792 5795 5796 5796 5797 5797 5795 5794
5626 5626 5626 5629 5632 5635 5640 5645 5654 5665 5672 5686 5691 5697 5710 5710 5712 5722 5727 5732 5737 5742 5746 5750 5759 5767 5768 5771 5771 5775 5777 5784 5787 5787 5784 5786 5786 5788 5790 5790 5791 5794 5792 5791 5790
5598 5597 5598 5602 5606 5609 5614 5621 5631 5645 5652 5670 5677 5681 5689 5698 5698 5713 5714 5721 5725 5731 5739 5740 5747 5754 5757 5761 5766 5767 5777 5778 5780 5780 5781 5782 5781 5781 5785 5786 5788 5789 5789 5788 5789
5583 5582 5580 5581 5583 5585 5592 5598 5610 5622 5636 5655 5652 5659 5664 5678 5693 5700 5706 5708 5717 5723 5727 5728 5737 5744 5750 5757 5762 5769 5769 5771 5774 5776 5776 5778 5775 5780 5782 5784 5784 5784 5785 5785 5782
5573 5571 5570 5570 5570 5571 5575 5579 5588 5602 5620 5626 5626 5639 5647 5659 5672 5678 5687 5694 5705 5709 5715 5719 5728 5736 5741 5746 5752 5764 5760 5764 5767 5767 5762 5773 5773 5777 5776 5777 5778 5781 5784 5780 5777
5563 5561 5558 5558 5558 5561 5564 5567 5573 5578 5604 5606 5608 5621 5628 5636 5647 5656 5672 5679 5690 5697 5701 5707 5714 5723 5728 5733 5740 5748 5752 5753 5754 5753 5757 5767 5770 5773 5771 5773 5774 5778 5779 5774 5773
5555 5551 5547 5547 5547 5548 5552 5555 5555 5574 5583 5593 5599 5602 5606 5620 5629 5637 5651 5667 5680 5690 5697 5704 5710 5716 5722 5724 5734 5738 5743 5745 5745 5751 5757 5761 5763 5767 5768 5769 5770 5773 5773 5771 5769
5548 5543 5540 5539 5539 5540 5542 5543 5549 5554 5556 5567 5573 5580 5593 5606 5617 5627 5645 5659 5674 5683 5690 5695 5701 5710 5715 5720 5727 5732 5733 5746 5747 5750 5752 5757 5759 5760 5762 5765 5768 5769 5770 5769 5766
5540 5534 5532 5531 5531 5531 5532 5534 5536 5540 5547 5549 5560 5568 5578 5591 5601 5616 5635 5651 5658 5668 5679 5688 5693 5702 5706 5711 5718 5725 5732 5735 5735 5739 5745 5751 5753 5756 5758 5761 5764 5766 5766 5766 5765
5532 5527 5525 5524 5524 5525 5523 5524 5527 5533 5536 5539 5547 5556 5567 5575 5591 5603 5620 5631 5641 5650 5661 5674 5681 5689 5695 5703 5709 5714 5717 5724 5733 5737 5740 5747 5750 5754 5755 5757 5761 5762 5764 5765 5761
5527 5522 5520 5521 5524 5522 5521 5520 5523 5525 5529 5532 5539 5546 5552 5564 5579 5592 5607 5608 5621 5633 5643 5662 5669 5680 5694 5699 5706 5710 5717 5722 5726 5731 5734 5740 5744 5749 5751 5754 5758 5760 5762 5761 5758
5524 5520 5519 5521 5522 5521 5521 5521 5522 5524 5526 5529 5534 5535 5541 5554 5569 5581 5587 5597 5612 5624 5635 5644 5651 5669 5680 5686 5692 5698 5707 5714 5721 5725 5730 5735 5741 5744 5747 5751 5754 5757 5759 5758 5754
5524 5520 5519 5518 5520 5516 5518 5519 5520 5521 5523 5523 5526 5529 5534 5542 5553 5566 5578 5589 5600 5612 5623 5632 5643 5655 5670 5683 5692 5694 5700 5707 5714 5718 5725 5730 5736 5738 5743 5747 5751 5754 5755 5756 5753
5521 5519 5517 5516 5516 5516 5517 5519 5518 5517 5517 5518 5522 5526 5528 5532 5539 5555 5568 5581 5592 5601 5613 5627 5642 5652 5664 5676 5683 5692 5697 5701 5705 5714 5717 5728 5731 5734 5739 5742 5746 5749 5752 5754 5751
5520 5516 5514 5513 5514 5515 5515 5516 5515 5513 5513 5510 5514 5517 5523 5528 5536 5546 5558 5572 5580 5593 5605 5621 5637 5644 5654 5667 5675 5681 5688 5696 5702 5709 5714 5722 5726 5732 5734 5738 5741 5745 5750 5752 5750
5518 5511 5509 5511 5513 5513 5513 5512 5510 5509 5510 5508 5510 5514 5515 5520 5528 5533 5546 5559 5575 5586 5597 5613 5624 5634 5645 5658 5668 5666 5676 5687 5695 5704 5709 5714 5723 5727 5730 5733 5738 5742 5746 5748 5748